Regional Weather Roundup
Issued by NWS

Home | Current Version | Previous Version | Text Only | Print | Product List | Glossary Off
Versions: 1 2 3 4 5 6 7 8 9 10 11 12 13 14 15 16 17 18 19 20 21 22 23 24 25 26 27 28 29 30 31 32 33 34 35 36 37 38 39 40 41 42 43 44 45 46 47 48 49 50

000
ASUS43 KFSD 231002
RWRSD

WEATHER ROUNDUP FOR SOUTH DAKOTA
NATIONAL WEATHER SERVICE SIOUX FALLS SD
500 AM CDT WED JUL 23 2014

NOTE: "FAIR" INDICATES FEW OR NO CLOUDS BELOW 12,000 FEET WITH NO
SIGNIFICANT WEATHER AND/OR OBSTRUCTIONS TO VISIBILITY.


SDZ001>005-009-010-012>017-231100-
NORTHWEST AND NORTH CENTRAL SOUTH DAKOTA

CITY           SKY/WX    TMP DP  RH WIND       PRES   REMARKS
BUFFALO          N/A     63  58  83 E7        30.16S
FAITH            N/A     63  60  90 SE10      30.23R
MOBRIDGE       PTCLDY    63  59  87 E8        30.23R
$$

SDZ012>016-024>037-041>051-057-063-072>074-231100-
SOUTHWEST AND SOUTH CENTRAL SOUTH DAKOTA

CITY           SKY/WX    TMP DP  RH WIND       PRES   REMARKS
RAPID CTY ARPT CLOUDY    65  57  75 SW16      30.26S
PIERRE         CLOUDY    67  60  78 E10       30.22F
CUSTER         PTCLDY    54  52  93 NW5       30.41F
ELLSWORTH AFB  TSTM      65  58  78 SW13      30.25S
PHILIP         CLOUDY    70  59  68 E10       30.18F
PINE RIDGE     CLOUDY    63  60  90 E18       30.31F
WINNER         FAIR      65  58  78 S6        30.27R
$$

SDZ004>011-016>023-039-040-231100-
NORTHEAST SOUTH DAKOTA

CITY           SKY/WX    TMP DP  RH WIND       PRES   REMARKS
ABERDEEN       CLEAR     59  57  93 CALM      30.27R
WATERTOWN      CLEAR     55  53  93 CALM      30.28R
SISSETON         N/A     56  55  97 CALM      30.26R
$$

SDZ017-020-022-023-036>040-048>070-231100-
SOUTHEAST SOUTH DAKOTA

CITY           SKY/WX    TMP DP  RH WIND       PRES   REMARKS
SIOUX FALLS    PTCLDY    59  56  89 NE3       30.25R
HURON          CLEAR     61  57  87 E3        30.25R
CHAMBERLAIN    MOCLDY    60  58  94 SE3       30.25R
MITCHELL       PTCLDY    61  58  90 E3        30.25R
YANKTON        CLEAR     63  55  77 SE3       30.24R
$$

ABBREVIATIONS USED IN REMARKS
   TC - TEMPERATURE IN CELSIUS
  WCI - WIND CHILL INDEX
   HX - HEAT INDEX
  VSB - VISIBILITY




USA.gov is the U.S. government's official web portal to all federal, state and local government web resources and services.